Вернуться в каталог

STARLINK-30168

АктивенСвязьVLEO
NORAD 57513·PAYLOAD·🇺🇸 United States

Запущен Aug 7, 2023 с Cape Canaveral Space Force Station

Loading…

Ближайшие Пролёты (ближайшие 24 часа)

TLE

СвежийSource: CelesTrak SupGP

Эпоха: Sep 14, 2026, 20:58 UTC

1 57513C 23113U   26257.87409722  .00052231  00000+0  18919-2 0  2571
2 57513  43.0042  27.3620 0001747 275.3390  12.8638 15.27551146    10

Отслеживайте STARLINK-30168 в реальном времени с AllMySat

Download on the App Store